Year,Month,Day,Hour,Minute,Value (Times are PST for temperature in C)
2008,04,23,00,00,9.70
2008,04,23,00,01,9.70
2008,04,23,00,02,9.70
2008,04,23,00,03,9.70
2008,04,23,00,04,9.70
2008,04,23,00,05,9.70
2008,04,23,00,06,9.70
2008,04,23,00,07,9.70
2008,04,23,00,08,9.70
2008,04,23,00,09,9.70
2008,04,23,00,10,9.70
2008,04,23,00,11,9.70
2008,04,23,00,12,9.70
2008,04,23,00,13,9.70
2008,04,23,00,14,9.70
2008,04,23,00,15,9.60
2008,04,23,00,16,9.60
2008,04,23,02,02,8.90
2008,04,23,02,03,8.90
2008,04,23,02,04,8.90
2008,04,23,02,05,8.90
2008,04,23,02,06,8.90
2008,04,23,02,07,8.90
2008,04,23,02,08,8.90
2008,04,23,02,09,8.90
2008,04,23,02,10,8.80
2008,04,23,02,11,8.80
2008,04,23,02,12,8.80
2008,04,23,02,13,8.80
2008,04,23,02,14,8.80
2008,04,23,02,15,8.80
2008,04,23,02,16,8.80
2008,04,23,02,17,8.80
2008,04,23,02,18,8.80
2008,04,23,02,19,8.80
2008,04,23,02,20,8.80
2008,04,23,02,21,8.80
2008,04,23,02,22,8.80
2008,04,23,02,23,8.70
2008,04,23,02,24,8.70
2008,04,23,02,25,8.70
2008,04,23,02,26,8.70
2008,04,23,02,27,8.70
2008,04,23,02,28,8.70
2008,04,23,02,29,8.70
2008,04,23,02,30,8.70
2008,04,23,02,31,8.70
2008,04,23,02,32,8.70
2008,04,23,02,33,8.70
2008,04,23,02,34,8.70
2008,04,23,02,35,8.70
2008,04,23,02,36,8.70
2008,04,23,02,37,8.70
2008,04,23,02,38,8.70
2008,04,23,02,39,8.70
2008,04,23,02,40,8.70
2008,04,23,02,41,8.70
2008,04,23,02,42,8.70
2008,04,23,02,43,8.70
2008,04,23,02,44,8.70
2008,04,23,02,45,8.70
2008,04,23,02,46,8.70
2008,04,23,02,47,8.70
2008,04,23,02,48,8.70
2008,04,23,02,49,8.70
2008,04,23,02,50,8.70
2008,04,23,02,51,8.70
2008,04,23,02,52,8.70
2008,04,23,02,53,8.70
2008,04,23,02,54,8.70
2008,04,23,02,55,8.70
2008,04,23,02,56,8.70
2008,04,23,02,57,8.70
2008,04,23,02,58,8.70
2008,04,23,02,59,8.70
2008,04,23,03,00,8.70
2008,04,23,03,01,8.70
2008,04,23,03,02,8.70
2008,04,23,03,03,8.70
2008,04,23,03,04,8.60
2008,04,23,03,05,8.60
2008,04,23,03,06,8.50
2008,04,23,03,07,8.50
2008,04,23,03,08,8.50
2008,04,23,03,09,8.40
2008,04,23,03,10,8.40
2008,04,23,03,11,8.30
2008,04,23,03,12,8.20
2008,04,23,03,13,8.20
2008,04,23,03,14,8.10
2008,04,23,03,15,8.10
2008,04,23,03,16,8.00
2008,04,23,03,17,8.00
2008,04,23,03,18,7.90
2008,04,23,03,19,7.90
2008,04,23,03,20,7.80
2008,04,23,03,21,7.80
2008,04,23,03,22,7.80
2008,04,23,03,23,7.80
2008,04,23,03,24,7.70
2008,04,23,03,25,7.70
2008,04,23,03,26,7.60
2008,04,23,03,27,7.60
2008,04,23,03,28,7.50
2008,04,23,03,29,7.50
2008,04,23,03,30,7.40
2008,04,23,03,31,7.40
2008,04,23,03,32,7.30
2008,04,23,03,33,7.30
2008,04,23,03,34,7.30
2008,04,23,03,35,7.30
2008,04,23,03,36,7.30
2008,04,23,03,37,7.30
2008,04,23,03,38,7.30
2008,04,23,03,39,7.30
2008,04,23,03,40,7.20
2008,04,23,03,41,7.20
2008,04,23,03,42,7.20
2008,04,23,03,43,7.20
2008,04,23,03,44,7.10
2008,04,23,03,45,7.10
2008,04,23,03,46,7.10
2008,04,23,03,47,7.10
2008,04,23,03,48,7.00
2008,04,23,03,49,7.00
2008,04,23,03,50,6.90
2008,04,23,03,51,6.90
2008,04,23,03,52,6.80
2008,04,23,03,53,6.80
2008,04,23,03,54,6.80
2008,04,23,03,55,6.80
2008,04,23,03,56,6.80
2008,04,23,03,57,6.70
2008,04,23,03,58,6.70
2008,04,23,03,59,6.70
2008,04,23,04,00,6.70
2008,04,23,04,01,6.70
2008,04,23,04,02,6.70
2008,04,23,04,03,6.60
2008,04,23,04,04,6.60
2008,04,23,04,05,6.60
2008,04,23,04,06,6.60
2008,04,23,04,07,6.60
2008,04,23,04,08,6.60
2008,04,23,04,09,6.60
2008,04,23,04,10,6.60
2008,04,23,04,11,6.60
2008,04,23,04,12,6.60
2008,04,23,04,13,6.60
2008,04,23,04,14,6.60
2008,04,23,04,15,6.60
2008,04,23,04,16,6.60
2008,04,23,04,17,6.60
2008,04,23,04,18,6.60
2008,04,23,04,19,6.60
2008,04,23,04,20,6.60
2008,04,23,04,21,6.60
2008,04,23,04,22,6.60
2008,04,23,04,23,6.60
2008,04,23,04,24,6.60
2008,04,23,04,25,6.60
2008,04,23,04,26,6.60
2008,04,23,04,27,6.60
2008,04,23,04,28,6.50
2008,04,23,04,29,6.40
2008,04,23,04,30,6.40
2008,04,23,04,31,6.40
2008,04,23,04,32,6.40
2008,04,23,04,33,6.40
2008,04,23,04,34,6.30
2008,04,23,04,35,6.30
2008,04,23,04,36,6.30
2008,04,23,04,37,6.30
2008,04,23,04,38,6.30
2008,04,23,04,39,6.20
2008,04,23,04,40,6.20
2008,04,23,04,41,6.20
2008,04,23,04,42,6.20
2008,04,23,04,43,6.20
2008,04,23,04,44,6.20
2008,04,23,04,45,6.10
2008,04,23,04,46,6.10
2008,04,23,04,47,6.10
2008,04,23,04,48,6.10
2008,04,23,04,49,6.10
2008,04,23,04,50,6.00
2008,04,23,04,51,6.00
2008,04,23,04,52,6.00
2008,04,23,04,53,6.00
2008,04,23,04,54,5.90
2008,04,23,04,55,5.90
2008,04,23,04,56,5.90
2008,04,23,04,57,5.90
2008,04,23,04,58,5.80
2008,04,23,04,59,5.80
2008,04,23,05,00,5.80
2008,04,23,05,01,5.80
2008,04,23,05,02,5.70
2008,04,23,05,03,5.70
2008,04,23,05,04,5.70
2008,04,23,05,05,5.70
2008,04,23,05,06,5.70
2008,04,23,05,07,5.70
2008,04,23,05,08,5.70
2008,04,23,05,09,5.70
2008,04,23,05,10,5.70
2008,04,23,05,11,5.70
2008,04,23,05,12,5.60
2008,04,23,05,13,5.60
2008,04,23,05,14,5.60
2008,04,23,05,15,5.60
2008,04,23,05,16,5.60
2008,04,23,05,17,5.60
2008,04,23,05,18,5.60
2008,04,23,05,19,5.50
2008,04,23,05,20,5.50
2008,04,23,05,21,5.50
2008,04,23,05,22,5.50
2008,04,23,05,23,5.50
2008,04,23,05,24,5.50
2008,04,23,05,25,5.40
2008,04,23,05,26,5.40
2008,04,23,05,27,5.40
2008,04,23,05,28,5.40
2008,04,23,05,29,5.40
2008,04,23,05,30,5.40
2008,04,23,05,31,5.40
2008,04,23,05,32,5.40
2008,04,23,05,33,5.40
2008,04,23,05,34,5.30
2008,04,23,05,35,5.30
2008,04,23,05,36,5.30
2008,04,23,05,37,5.30
2008,04,23,05,38,5.30
2008,04,23,05,39,5.30
2008,04,23,05,40,5.30
2008,04,23,05,41,5.30
2008,04,23,05,42,5.30
2008,04,23,05,43,5.30
2008,04,23,05,44,5.30
2008,04,23,05,45,5.30
2008,04,23,05,46,5.30
2008,04,23,05,47,5.30
2008,04,23,05,48,5.30
2008,04,23,05,49,5.30
2008,04,23,05,50,5.30
2008,04,23,05,51,5.30
2008,04,23,05,52,5.30
2008,04,23,05,53,5.30
2008,04,23,05,54,5.30
2008,04,23,05,55,5.30
2008,04,23,05,56,5.30
2008,04,23,05,57,5.30
2008,04,23,05,58,5.30
2008,04,23,05,59,5.30
2008,04,23,06,00,5.30
2008,04,23,06,01,5.30
2008,04,23,06,02,5.30
2008,04,23,06,03,5.30
2008,04,23,06,04,5.30
2008,04,23,06,05,5.30
2008,04,23,06,06,5.30
2008,04,23,06,07,5.30
2008,04,23,06,08,5.40
2008,04,23,06,09,5.40
2008,04,23,06,10,5.40
2008,04,23,06,11,5.40
2008,04,23,06,12,5.40
2008,04,23,06,13,5.40
2008,04,23,06,14,5.50
2008,04,23,06,15,5.50
2008,04,23,06,16,5.50
2008,04,23,06,17,5.50
2008,04,23,06,18,5.50
2008,04,23,06,19,5.50
2008,04,23,06,20,5.50
2008,04,23,06,21,5.60
2008,04,23,06,22,5.60
2008,04,23,06,23,5.60
2008,04,23,06,24,5.60
2008,04,23,06,25,5.60
2008,04,23,06,26,5.60
2008,04,23,06,27,5.60
2008,04,23,06,28,5.60
2008,04,23,06,29,5.60
2008,04,23,06,30,5.60
2008,04,23,06,31,5.60
2008,04,23,06,32,5.60
2008,04,23,06,33,5.60
2008,04,23,06,34,5.60
2008,04,23,06,35,5.60
2008,04,23,06,36,5.60
2008,04,23,06,37,5.60
2008,04,23,06,38,5.60
2008,04,23,06,39,5.60
2008,04,23,06,40,5.60
2008,04,23,06,41,5.60
2008,04,23,06,42,5.60
2008,04,23,06,43,5.60
2008,04,23,06,44,5.60
2008,04,23,06,45,5.60
2008,04,23,06,46,5.60
2008,04,23,06,47,5.60
2008,04,23,06,48,5.60
2008,04,23,06,49,5.60
2008,04,23,06,50,5.60
2008,04,23,06,51,5.60
2008,04,23,06,52,5.60
2008,04,23,06,53,5.60
2008,04,23,06,54,5.60
2008,04,23,06,55,5.60
2008,04,23,06,56,5.60
2008,04,23,06,57,5.60
2008,04,23,06,58,5.60
2008,04,23,06,59,5.60
2008,04,23,07,00,5.60
2008,04,23,07,01,5.60
2008,04,23,07,02,5.60
2008,04,23,07,03,5.60
2008,04,23,07,04,5.60
2008,04,23,07,05,5.60
2008,04,23,07,06,5.50
2008,04,23,07,07,5.50
2008,04,23,07,08,5.50
2008,04,23,07,09,5.50
2008,04,23,07,10,5.50
2008,04,23,07,11,5.50
2008,04,23,07,12,5.50
2008,04,23,07,13,5.60
2008,04,23,07,14,5.60
2008,04,23,07,15,5.60
2008,04,23,07,16,5.60
2008,04,23,07,17,5.60
2008,04,23,07,18,5.60
2008,04,23,07,19,5.60
2008,04,23,07,20,5.60
2008,04,23,07,21,5.60
2008,04,23,07,22,5.60
2008,04,23,07,23,5.60
2008,04,23,07,24,5.60
2008,04,23,07,25,5.60
2008,04,23,07,26,5.60
2008,04,23,07,27,5.60
2008,04,23,07,28,5.60
2008,04,23,07,29,5.60
2008,04,23,07,30,5.60
2008,04,23,07,31,5.60
2008,04,23,07,32,5.60
2008,04,23,07,33,5.60
2008,04,23,07,34,5.70
2008,04,23,07,35,5.70
2008,04,23,07,36,5.70
2008,04,23,07,37,5.70
2008,04,23,07,38,5.70
2008,04,23,07,39,5.70
2008,04,23,07,40,5.70
2008,04,23,07,41,5.70
2008,04,23,07,42,5.60
2008,04,23,07,43,5.60
2008,04,23,07,44,5.60
2008,04,23,07,45,5.70
2008,04,23,07,46,5.70
2008,04,23,07,47,5.70
2008,04,23,07,48,5.60
2008,04,23,07,49,5.60
2008,04,23,07,50,5.60
2008,04,23,07,51,5.60
2008,04,23,07,52,5.60
2008,04,23,07,53,5.60
2008,04,23,07,54,5.60
2008,04,23,07,55,5.60
2008,04,23,07,56,5.60
2008,04,23,07,57,5.60
2008,04,23,07,58,5.60
2008,04,23,07,59,5.60
2008,04,23,08,00,5.60
2008,04,23,08,01,5.60
2008,04,23,08,02,5.60
2008,04,23,08,03,5.60
2008,04,23,08,04,5.60
2008,04,23,08,05,5.60
2008,04,23,08,06,5.60
2008,04,23,08,07,5.60
2008,04,23,08,08,5.60
2008,04,23,08,09,5.60
2008,04,23,08,10,5.50
2008,04,23,08,11,5.50
2008,04,23,08,12,5.50
2008,04,23,08,13,5.50
2008,04,23,08,14,5.50
2008,04,23,08,15,5.50
2008,04,23,08,16,5.50
2008,04,23,08,17,5.50
2008,04,23,08,18,5.50
2008,04,23,08,19,5.50
2008,04,23,08,20,5.50
2008,04,23,08,21,5.50
2008,04,23,08,22,5.50
2008,04,23,08,23,5.50
2008,04,23,08,24,5.50
2008,04,23,08,25,5.50
2008,04,23,08,26,5.50
2008,04,23,08,27,5.50
2008,04,23,08,28,5.60
2008,04,23,08,29,5.60
2008,04,23,08,30,5.60
2008,04,23,08,31,5.60
2008,04,23,08,32,5.60
2008,04,23,08,33,5.60
2008,04,23,08,34,5.60
2008,04,23,08,35,5.60
2008,04,23,08,36,5.60
2008,04,23,08,37,5.60
2008,04,23,08,38,5.60
2008,04,23,08,39,5.60
2008,04,23,08,40,5.60
2008,04,23,08,41,5.60
2008,04,23,08,42,5.60
2008,04,23,08,43,5.60
2008,04,23,08,44,5.60
2008,04,23,08,45,5.60
2008,04,23,08,46,5.60
2008,04,23,08,47,5.60
2008,04,23,08,48,5.70
2008,04,23,08,49,5.70
2008,04,23,08,50,5.70
2008,04,23,08,51,5.70
2008,04,23,08,52,5.70
2008,04,23,08,53,5.70
2008,04,23,08,54,5.70
2008,04,23,08,55,5.70
2008,04,23,08,56,5.70
2008,04,23,08,57,5.70
2008,04,23,08,58,5.70
2008,04,23,08,59,5.70
2008,04,23,09,00,5.70
2008,04,23,09,01,5.70
2008,04,23,09,02,5.70
2008,04,23,09,03,5.70
2008,04,23,09,04,5.70
2008,04,23,09,05,5.70
2008,04,23,09,06,5.70
2008,04,23,09,07,5.70
2008,04,23,09,08,5.70
2008,04,23,09,09,5.70
2008,04,23,09,10,5.70
2008,04,23,09,11,5.70
2008,04,23,09,12,5.70
2008,04,23,09,13,5.70
2008,04,23,09,14,5.70
2008,04,23,09,15,5.70
2008,04,23,09,16,5.70
2008,04,23,09,17,5.70
2008,04,23,09,18,5.70
2008,04,23,09,19,5.70
2008,04,23,09,20,5.70
2008,04,23,09,21,5.70
2008,04,23,09,22,5.70
2008,04,23,09,23,5.70
2008,04,23,09,24,5.70
2008,04,23,09,25,5.70
2008,04,23,09,26,5.70
2008,04,23,09,27,5.70
2008,04,23,09,28,5.60
2008,04,23,09,29,5.60
2008,04,23,09,30,5.70
2008,04,23,09,31,5.70
2008,04,23,09,32,5.70
2008,04,23,09,33,5.70
2008,04,23,09,34,5.70
2008,04,23,09,35,5.70
2008,04,23,09,36,5.70
2008,04,23,09,37,5.70
2008,04,23,09,38,5.70
2008,04,23,09,39,5.70
2008,04,23,09,40,5.70
2008,04,23,09,41,5.70
2008,04,23,09,42,5.70
2008,04,23,09,43,5.70
2008,04,23,09,44,5.70
2008,04,23,09,45,5.70
2008,04,23,09,46,5.70
2008,04,23,09,47,5.70
2008,04,23,09,48,5.70
2008,04,23,09,49,5.70
2008,04,23,09,50,5.70
2008,04,23,09,51,5.70
2008,04,23,09,52,5.70
2008,04,23,09,53,5.70
2008,04,23,09,54,5.70
2008,04,23,09,55,5.70
2008,04,23,09,56,5.70
2008,04,23,09,57,5.70
2008,04,23,09,58,5.70
2008,04,23,09,59,5.70
2008,04,23,10,00,5.70
2008,04,23,10,01,5.70
2008,04,23,10,02,5.70
2008,04,23,10,03,5.70
2008,04,23,10,04,5.70
2008,04,23,10,05,5.70
2008,04,23,10,06,5.70
2008,04,23,10,07,5.70
2008,04,23,10,08,5.70
2008,04,23,10,09,5.80
2008,04,23,10,10,5.80
2008,04,23,10,11,5.80
2008,04,23,10,12,5.90
2008,04,23,10,13,5.90
2008,04,23,10,14,5.90
2008,04,23,10,15,5.90
2008,04,23,10,16,5.80
2008,04,23,10,17,5.90
2008,04,23,10,18,5.90
2008,04,23,10,19,5.90
2008,04,23,10,20,6.00
2008,04,23,10,21,6.00
2008,04,23,10,22,6.00
2008,04,23,10,23,6.00
2008,04,23,10,24,6.00
2008,04,23,10,25,6.10
2008,04,23,10,26,6.10
2008,04,23,10,27,6.10
2008,04,23,10,28,6.10
2008,04,23,10,29,6.10
2008,04,23,10,30,6.10
2008,04,23,10,31,6.00
2008,04,23,10,32,6.00
2008,04,23,10,33,6.10
2008,04,23,10,34,6.10
2008,04,23,10,35,6.10
2008,04,23,10,36,6.00
2008,04,23,10,37,6.00
2008,04,23,10,38,6.00
2008,04,23,10,39,5.90
2008,04,23,10,40,5.90
2008,04,23,10,41,5.90
2008,04,23,10,42,5.90
2008,04,23,10,43,5.80
2008,04,23,10,44,5.80
2008,04,23,10,45,5.70
2008,04,23,10,46,5.70
2008,04,23,10,47,5.70
2008,04,23,10,48,5.70
2008,04,23,10,49,5.70
2008,04,23,10,50,5.70
2008,04,23,10,51,5.60
2008,04,23,10,52,5.60
2008,04,23,10,53,5.50
2008,04,23,10,54,5.50
2008,04,23,10,55,5.50
2008,04,23,10,56,5.50
2008,04,23,10,57,5.60
2008,04,23,10,58,5.60
2008,04,23,10,59,5.70
2008,04,23,11,00,5.70
2008,04,23,11,01,5.70
2008,04,23,11,02,5.70
2008,04,23,11,03,5.70
2008,04,23,11,04,5.70
2008,04,23,11,05,5.70
2008,04,23,11,06,5.70
2008,04,23,11,07,5.70
2008,04,23,11,08,5.70
2008,04,23,11,09,5.70
2008,04,23,11,10,5.70
2008,04,23,11,11,5.70
2008,04,23,11,12,5.70
2008,04,23,11,13,5.70
2008,04,23,11,14,5.70
2008,04,23,11,15,5.70
2008,04,23,11,16,5.70
2008,04,23,11,17,5.70
2008,04,23,11,18,5.70
2008,04,23,11,19,5.70
2008,04,23,11,20,5.70
2008,04,23,11,21,5.80
2008,04,23,11,22,5.80
2008,04,23,11,23,5.80
2008,04,23,11,24,5.90
2008,04,23,11,25,5.90
2008,04,23,11,26,6.00
2008,04,23,11,27,6.00
2008,04,23,11,28,6.10
2008,04,23,11,29,6.10
2008,04,23,11,30,6.10
2008,04,23,11,31,6.20
2008,04,23,11,32,6.20
2008,04,23,11,33,6.20
2008,04,23,11,34,6.30
2008,04,23,11,35,6.30
2008,04,23,11,36,6.40
2008,04,23,11,37,6.40
2008,04,23,11,38,6.50
2008,04,23,11,39,6.60
2008,04,23,11,40,6.60
2008,04,23,11,41,6.60
2008,04,23,11,42,6.60
2008,04,23,11,43,6.60
2008,04,23,11,44,6.60
2008,04,23,11,45,6.60
2008,04,23,11,46,6.60
2008,04,23,11,47,6.60
2008,04,23,11,48,6.70
2008,04,23,11,49,6.70
2008,04,23,11,50,6.70
2008,04,23,11,51,6.80
2008,04,23,11,52,6.80
2008,04,23,11,53,6.80
2008,04,23,11,54,6.80
2008,04,23,11,55,6.80
2008,04,23,11,56,6.80
2008,04,23,11,57,6.80
2008,04,23,11,58,6.80
2008,04,23,11,59,6.80
2008,04,23,12,00,6.90
2008,04,23,12,01,6.90
2008,04,23,12,02,7.00
2008,04,23,12,03,7.00
2008,04,23,12,04,7.10
2008,04,23,12,05,7.10
2008,04,23,12,06,7.20
2008,04,23,12,07,7.20
2008,04,23,12,08,7.20
2008,04,23,12,09,7.20
2008,04,23,12,10,7.10
2008,04,23,12,11,7.10
2008,04,23,12,12,7.00
2008,04,23,12,13,7.00
2008,04,23,12,14,6.90
2008,04,23,12,15,6.90
2008,04,23,12,16,6.90
2008,04,23,12,17,6.90
2008,04,23,12,18,6.90
2008,04,23,12,19,6.90
2008,04,23,12,20,7.00
2008,04,23,12,21,7.00
2008,04,23,12,22,7.00
2008,04,23,12,23,7.00
2008,04,23,12,24,7.00
2008,04,23,12,25,7.00
2008,04,23,12,26,7.10
2008,04,23,12,27,7.00
2008,04,23,12,28,7.00
2008,04,23,12,29,7.00
2008,04,23,12,30,6.90
2008,04,23,12,31,6.90
2008,04,23,12,32,6.90
2008,04,23,12,33,6.90
2008,04,23,12,34,6.90
2008,04,23,12,35,6.90
2008,04,23,12,36,6.90
2008,04,23,12,37,6.90
2008,04,23,12,38,7.00
2008,04,23,12,39,7.00
2008,04,23,12,40,7.10
2008,04,23,12,41,7.10
2008,04,23,12,42,7.20
2008,04,23,12,43,7.20
2008,04,23,12,44,7.10
2008,04,23,12,45,7.10
2008,04,23,12,46,7.10
2008,04,23,12,47,7.10
2008,04,23,12,48,7.10
2008,04,23,12,49,7.10
2008,04,23,12,50,7.10
2008,04,23,12,51,7.20
2008,04,23,12,52,7.20
2008,04,23,12,53,7.30
2008,04,23,12,54,7.20
2008,04,23,12,55,7.20
2008,04,23,12,56,7.20
2008,04,23,12,57,7.10
2008,04,23,12,58,7.20
2008,04,23,12,59,7.20
2008,04,23,13,00,7.20
2008,04,23,13,01,7.20
2008,04,23,13,02,7.30
2008,04,23,13,03,7.30
2008,04,23,13,04,7.30
2008,04,23,13,05,7.30
2008,04,23,13,06,7.30
2008,04,23,13,07,7.30
2008,04,23,13,08,7.20
2008,04,23,13,09,7.20
2008,04,23,13,10,7.20
2008,04,23,13,11,7.30
2008,04,23,13,12,7.30
2008,04,23,13,13,7.30
2008,04,23,13,14,7.30
2008,04,23,13,15,7.40
2008,04,23,13,16,7.40
2008,04,23,13,17,7.40
2008,04,23,13,18,7.40
2008,04,23,13,19,7.40
2008,04,23,13,20,7.30
2008,04,23,13,21,7.30
2008,04,23,13,22,7.30
2008,04,23,13,23,7.40
2008,04,23,13,24,7.40
2008,04,23,13,25,7.50
2008,04,23,13,26,7.60
2008,04,23,13,27,7.60
2008,04,23,13,28,7.70
2008,04,23,13,29,7.80
2008,04,23,13,30,7.80
2008,04,23,13,31,7.80
2008,04,23,13,32,7.80
2008,04,23,13,33,7.90
2008,04,23,13,34,7.90
2008,04,23,13,35,7.90
2008,04,23,13,36,7.80
2008,04,23,13,37,7.80
2008,04,23,13,38,7.80
2008,04,23,13,39,7.80
2008,04,23,13,40,7.80
2008,04,23,13,41,7.80
2008,04,23,13,42,7.80
2008,04,23,13,43,7.80
2008,04,23,13,44,7.80
2008,04,23,13,45,7.80
2008,04,23,13,46,7.80
2008,04,23,13,47,7.80
2008,04,23,13,48,7.80
2008,04,23,13,49,7.80
2008,04,23,13,50,7.80
2008,04,23,13,51,7.90
2008,04,23,13,52,7.90
2008,04,23,13,53,7.90
2008,04,23,13,54,7.90
2008,04,23,13,55,7.90
2008,04,23,13,56,8.00
2008,04,23,13,57,8.00
2008,04,23,13,58,8.00
2008,04,23,13,59,8.00
2008,04,23,14,00,8.00
2008,04,23,14,01,8.00
2008,04,23,14,02,8.10
2008,04,23,14,03,8.10
2008,04,23,14,04,8.20
2008,04,23,14,05,8.20
2008,04,23,14,06,8.30
2008,04,23,14,07,8.30
2008,04,23,14,08,8.30
2008,04,23,14,09,8.20
2008,04,23,14,10,8.20
2008,04,23,14,11,8.20
2008,04,23,14,12,8.20
2008,04,23,14,13,8.20
2008,04,23,14,14,8.30
2008,04,23,14,15,8.30
2008,04,23,14,16,8.40
2008,04,23,14,17,8.50
2008,04,23,14,18,8.50
2008,04,23,14,19,8.70
2008,04,23,14,20,8.70
2008,04,23,14,21,8.80
2008,04,23,14,22,8.80
2008,04,23,14,23,8.90
2008,04,23,14,24,8.90
2008,04,23,14,25,8.80
2008,04,23,14,26,8.80
2008,04,23,14,27,8.70
2008,04,23,14,28,8.70
2008,04,23,14,29,8.70
2008,04,23,14,30,8.70
2008,04,23,14,31,8.70
2008,04,23,14,32,8.70
2008,04,23,14,33,8.70
2008,04,23,14,34,8.70
2008,04,23,14,35,8.70
2008,04,23,14,36,8.70
2008,04,23,14,37,8.70
2008,04,23,14,38,8.70
2008,04,23,14,39,8.70
2008,04,23,14,40,8.70
2008,04,23,14,41,8.60
2008,04,23,14,42,8.60
2008,04,23,14,43,8.60
2008,04,23,14,44,8.60
2008,04,23,14,45,8.60
2008,04,23,14,46,8.60
2008,04,23,14,47,8.70
2008,04,23,14,48,8.70
2008,04,23,14,49,8.70
2008,04,23,14,50,8.80
2008,04,23,14,51,8.80
2008,04,23,14,52,8.90
2008,04,23,14,53,8.90
2008,04,23,14,54,9.00
2008,04,23,14,55,9.00
2008,04,23,14,56,9.10
2008,04,23,14,57,9.10
2008,04,23,14,58,9.20
2008,04,23,14,59,9.20
2008,04,23,15,00,9.20
2008,04,23,15,01,9.30
2008,04,23,15,02,9.30
2008,04,23,15,03,9.40
2008,04,23,15,04,9.30
2008,04,23,15,05,9.30
2008,04,23,15,06,9.30
2008,04,23,15,07,9.20
2008,04,23,15,08,9.20
2008,04,23,15,09,9.20
2008,04,23,15,10,9.20
2008,04,23,15,11,9.20
2008,04,23,15,12,9.20
2008,04,23,15,13,9.30
2008,04,23,15,14,9.40
2008,04,23,15,15,9.60
2008,04,23,15,16,9.60
2008,04,23,15,17,9.70
2008,04,23,15,18,9.70
2008,04,23,15,19,9.80
2008,04,23,15,20,9.80
2008,04,23,15,21,9.90
2008,04,23,15,22,9.90
2008,04,23,15,23,10.10
2008,04,23,15,24,10.10
2008,04,23,15,25,10.10
2008,04,23,15,26,10.00
2008,04,23,15,27,9.90
2008,04,23,15,28,9.80
2008,04,23,15,29,9.80
2008,04,23,15,30,9.80
2008,04,23,15,31,9.80
2008,04,23,15,32,9.80
2008,04,23,15,33,9.80
2008,04,23,15,34,9.80
2008,04,23,15,35,9.80
2008,04,23,15,36,9.90
2008,04,23,15,37,9.90
2008,04,23,15,38,9.90
2008,04,23,15,39,9.90
2008,04,23,15,40,10.00
2008,04,23,15,41,10.10
2008,04,23,15,42,10.10
2008,04,23,15,43,10.10
2008,04,23,15,44,10.00
2008,04,23,15,45,9.90
2008,04,23,15,46,9.90
2008,04,23,15,47,9.90
2008,04,23,15,48,9.90
2008,04,23,15,49,9.90
2008,04,23,15,50,9.90
2008,04,23,15,51,9.90
2008,04,23,15,52,9.80
2008,04,23,15,53,9.70
2008,04,23,15,54,9.70
2008,04,23,15,55,9.70
2008,04,23,15,56,9.70
2008,04,23,15,57,9.70
2008,04,23,15,58,9.70
2008,04,23,15,59,9.80
2008,04,23,16,00,9.90
2008,04,23,16,01,9.90
2008,04,23,16,02,9.90
2008,04,23,16,03,9.90
2008,04,23,16,04,9.90
2008,04,23,16,05,9.90
2008,04,23,16,06,9.90
2008,04,23,16,07,9.90
2008,04,23,16,08,9.90
2008,04,23,16,09,9.90
2008,04,23,16,10,9.90
2008,04,23,16,11,10.10
2008,04,23,16,12,10.10
2008,04,23,16,13,10.30
2008,04,23,16,14,10.40
2008,04,23,16,15,10.40
2008,04,23,16,16,10.50
2008,04,23,16,17,10.60
2008,04,23,16,18,10.70
2008,04,23,16,19,10.90
2008,04,23,16,20,10.90
2008,04,23,16,21,11.00
2008,04,23,16,22,11.10
2008,04,23,16,23,11.10
2008,04,23,16,24,11.00
2008,04,23,16,25,10.90
2008,04,23,16,26,10.80
2008,04,23,16,27,10.60
2008,04,23,16,28,10.40
2008,04,23,16,29,10.20
2008,04,23,16,30,10.00
2008,04,23,16,31,9.80
2008,04,23,16,32,9.70
2008,04,23,16,33,9.60
2008,04,23,16,34,9.50
2008,04,23,16,35,9.50
2008,04,23,16,36,9.50
2008,04,23,16,37,9.40
2008,04,23,16,38,9.30
2008,04,23,16,39,9.30
2008,04,23,16,40,9.30
2008,04,23,16,41,9.20
2008,04,23,16,42,9.20
2008,04,23,16,43,9.20
2008,04,23,16,44,9.20
2008,04,23,16,45,9.10
2008,04,23,16,46,9.10
2008,04,23,16,47,9.10
2008,04,23,16,48,9.00
2008,04,23,16,49,9.00
2008,04,23,16,50,9.00
2008,04,23,16,51,9.00
2008,04,23,16,52,9.00
2008,04,23,16,53,9.00
2008,04,23,16,54,9.00
2008,04,23,16,55,9.10
2008,04,23,16,56,9.10
2008,04,23,16,57,9.20
2008,04,23,16,58,9.30
2008,04,23,16,59,9.40
2008,04,23,17,00,9.50
2008,04,23,17,01,9.60
2008,04,23,17,02,9.70
2008,04,23,17,03,9.80
2008,04,23,17,04,9.90
2008,04,23,17,05,9.90
2008,04,23,17,06,9.90
2008,04,23,17,07,9.90
2008,04,23,17,08,9.90
2008,04,23,17,09,9.90
2008,04,23,17,10,10.00
2008,04,23,17,11,10.10
2008,04,23,17,12,10.10
2008,04,23,17,13,10.20
2008,04,23,17,14,10.20
2008,04,23,17,15,10.10
2008,04,23,17,16,10.10
2008,04,23,17,17,10.00
2008,04,23,17,18,9.90
2008,04,23,17,19,10.00
2008,04,23,17,20,10.10
2008,04,23,17,21,10.00
2008,04,23,17,22,9.90
2008,04,23,17,23,9.90
2008,04,23,17,24,9.80
2008,04,23,17,25,9.70
2008,04,23,17,26,9.70
2008,04,23,17,27,9.60
2008,04,23,17,28,9.50
2008,04,23,17,29,9.50
2008,04,23,17,30,9.50
2008,04,23,17,31,9.40
2008,04,23,17,32,9.30
2008,04,23,17,33,9.30
2008,04,23,17,34,9.30
2008,04,23,17,35,9.20
2008,04,23,17,36,9.20
2008,04,23,17,37,9.20
2008,04,23,17,38,9.10
2008,04,23,17,39,9.00
2008,04,23,17,40,9.00
2008,04,23,17,41,8.90
2008,04,23,17,42,8.80
2008,04,23,17,43,8.80
2008,04,23,17,44,8.80
2008,04,23,17,45,8.80
2008,04,23,17,46,8.80
2008,04,23,17,47,8.90
2008,04,23,17,48,8.90
2008,04,23,17,49,9.00
2008,04,23,17,50,9.20
2008,04,23,17,51,9.20
2008,04,23,17,52,9.30
2008,04,23,17,53,9.40
2008,04,23,17,54,9.50
2008,04,23,17,55,9.50
2008,04,23,17,56,9.50
2008,04,23,17,57,9.50
2008,04,23,17,58,9.50
2008,04,23,17,59,9.30
2008,04,23,18,00,9.30
2008,04,23,18,01,9.30
2008,04,23,18,02,9.30
2008,04,23,18,03,9.40
2008,04,23,18,04,9.40
2008,04,23,18,05,9.50
2008,04,23,18,06,9.50
2008,04,23,18,07,9.60
2008,04,23,18,08,9.70
2008,04,23,18,09,9.70
2008,04,23,18,10,9.70
2008,04,23,18,11,9.70
2008,04,23,18,12,9.80
2008,04,23,18,13,9.90
2008,04,23,18,14,9.90
2008,04,23,18,15,10.00
2008,04,23,18,16,10.00
2008,04,23,18,17,9.90
2008,04,23,18,18,9.90
2008,04,23,18,19,9.90
2008,04,23,18,20,9.90
2008,04,23,18,21,9.90
2008,04,23,18,22,9.90
2008,04,23,18,23,9.90
2008,04,23,18,24,9.90
2008,04,23,18,25,9.90
2008,04,23,18,26,9.90
2008,04,23,18,27,9.90
2008,04,23,18,28,9.90
2008,04,23,18,29,9.90
2008,04,23,18,30,9.90
2008,04,23,18,31,9.90
2008,04,23,18,32,9.90
2008,04,23,18,33,9.90
2008,04,23,18,34,9.90
2008,04,23,18,35,9.90
2008,04,23,18,36,9.80
2008,04,23,18,37,9.80
2008,04,23,18,38,9.70
2008,04,23,18,39,9.70
2008,04,23,18,40,9.70
2008,04,23,18,41,9.70
2008,04,23,18,42,9.70
2008,04,23,18,43,9.70
2008,04,23,18,44,9.70
2008,04,23,18,45,9.60
2008,04,23,18,46,9.60
2008,04,23,18,47,9.60
2008,04,23,18,48,9.50
2008,04,23,18,49,9.50
2008,04,23,18,50,9.50
2008,04,23,18,51,9.40
2008,04,23,18,52,9.40
2008,04,23,18,53,9.40
2008,04,23,18,54,9.40
2008,04,23,18,55,9.40
2008,04,23,18,56,9.40
2008,04,23,18,57,9.40
2008,04,23,18,58,9.40
2008,04,23,18,59,9.50
2008,04,23,19,00,9.50
2008,04,23,19,01,9.50
2008,04,23,19,02,9.50
2008,04,23,19,03,9.60
2008,04,23,19,04,9.60
2008,04,23,19,05,9.60
2008,04,23,19,06,9.60
2008,04,23,19,07,9.60
2008,04,23,19,08,9.60
2008,04,23,19,09,9.50
2008,04,23,19,10,9.50
2008,04,23,19,11,9.50
2008,04,23,19,12,9.50
2008,04,23,19,13,9.50
2008,04,23,19,14,9.50
2008,04,23,19,15,9.40
2008,04,23,19,16,9.40
2008,04,23,19,17,9.40
2008,04,23,19,18,9.40
2008,04,23,19,19,9.40
2008,04,23,19,20,9.40
2008,04,23,19,21,9.40
2008,04,23,19,22,9.30
2008,04,23,19,23,9.30
2008,04,23,19,24,9.30
2008,04,23,19,25,9.20
2008,04,23,19,26,9.20
2008,04,23,19,27,9.20
2008,04,23,19,28,9.20
2008,04,23,19,29,9.20
2008,04,23,19,30,9.10
2008,04,23,19,31,9.10
2008,04,23,19,32,9.10
2008,04,23,19,33,9.00
2008,04,23,19,34,9.00
2008,04,23,19,35,9.00
2008,04,23,19,36,9.00
2008,04,23,19,37,8.90
2008,04,23,19,38,8.90
2008,04,23,19,39,8.90
2008,04,23,19,40,8.90
2008,04,23,19,41,8.90
2008,04,23,19,42,8.80
2008,04,23,19,43,8.80
2008,04,23,19,44,8.80
2008,04,23,19,45,8.80
2008,04,23,19,46,8.70
2008,04,23,19,47,8.70
2008,04,23,19,48,8.70
2008,04,23,19,49,8.70